Location: Erdweis
(48.5167°N, 15.3500°E)
Time: 13:19:58
(UTC+00:00)

USA 234 - Pass Details

Date: 26 January 2021
Orbit: 1100 x 1107 km, 123.0° (Epoch: 01 March)

Event Time Altitude Azimuth Distance (km) Brightness Sun altitude
Exits shadow 17:47:41 28° 58° (ENE) 1,929 4.0 -19.7°
Maximum altitude 17:50:36 44° 7° (N) 1,488 3.8 -20.2°
Drops below altitude 10° 17:56:42 10° 298° (WNW) 2,968 6.3 -21.2°
Sets 17:59:18 0° 293° (WNW) 3,927 7.2 -21.6°
